Ardabil, Iran

10:55 AM +0330 on October 15, 2019 (GMT +0330)
Ardabil

Weather History for OITL - August, 2019

Change the Weather History Date:

Thursday, August 1, 2019

  Actual Average (WUND) Record (WUND)
Temperature  
Mean Temperature 70 °F -  
Max Temperature 84 °F - - (-1)
Min Temperature 55 °F - - (-1)
Cooling Degree Days 4    
Growing Degree Days 20 (Base 50)    
Moisture  
Dew Point 58 °F    
Average Humidity 58    
Maximum Humidity 78    
Minimum Humidity 45    
Precipitation  
Precipitation 0.00 in - - ()
Sea Level Pressure  
Sea Level Pressure 29.89 in    
Wind  
Wind Speed 10 mph ()    
Max Wind Speed 24 mph    
Max Gust Speed -    
Visibility 6.2 miles    
Events      
Averages and records for this station are not official NWS values.
T = Trace of Precipitation, MM = Missing Value Source: Averaged Metar Reports

Daily Weather History Graph

Daily Weather History Graph

Search for Another Location

Airport or City:

Astronomy

Aug. 01, 2019 Rise Set
Actual Time 6:18 AM +0430 8:26 PM +0430
Civil Twilight 5:48 AM +0430 8:56 PM +0430
Nautical Twilight 5:12 AM +0430 9:32 PM +0430
Astronomical Twilight 4:33 AM +0430 10:11 PM +0430
Moon 6:15 AM +0430 (8/1) 8:56 PM +0430 (8/1)
Length of Visible Light 15h 07m
Length of Day
14h 08m
New Moon, 0% of the Moon is Illuminated
Aug 1
New Moon
Aug 7
First Quarter
Aug 15
Full
Aug 23
Last Quarter
Aug 30
New

Hourly Weather History & Observations

Time (+0430) Temp. Heat Index Dew Point Humidity Pressure Visibility Wind Dir Wind Speed Gust Speed Precip Events Conditions
12:20 AM 64.4 °F - 50.0 °F 59% 29.83 in - ENE 6.9 mph - N/A   Clear
1:20 AM 60.8 °F - 51.8 °F 72% 29.83 in - North 4.6 mph - N/A   Clear
2:20 AM 62.6 °F - 50.0 °F 63% 29.83 in - SW 4.6 mph - N/A   Clear
3:20 AM 57.2 °F - 48.2 °F 72% 29.86 in - SSW 6.9 mph - N/A   Clear
4:20 AM 57.2 °F - 48.2 °F 72% 29.89 in - Calm Calm - N/A   Clear
5:21 AM 59.0 °F - 48.2 °F 67% 29.89 in - Calm Calm - N/A   Clear
6:21 AM 55.4 °F - 46.4 °F 72% 29.92 in - ENE 4.6 mph - N/A   Clear
7:21 AM 62.6 °F - 50.0 °F 63% 29.92 in - Calm Calm - N/A   Clear
7:30 AM 62.6 °F - 50.0 °F 63% 29.92 in - Calm Calm - N/A   Clear
8:21 AM 69.8 °F - 62.6 °F 78% 29.95 in - Calm Calm - N/A   Clear
8:30 AM 69.8 °F - 62.6 °F 78% 29.95 in - Calm Calm - N/A   Clear
9:21 AM 75.2 °F - 62.6 °F 65% 29.95 in - SE 6.9 mph - N/A   Clear
9:30 AM 75.2 °F - 62.6 °F 65% 29.95 in - SE 6.9 mph - N/A   Clear
10:22 AM 78.8 °F - 62.6 °F 57% 29.92 in 6.2 mi South 9.2 mph - N/A   Partly Cloudy
10:30 AM 78.8 °F - 62.6 °F 57% 29.92 in 6.2 mi South 9.2 mph - N/A   Partly Cloudy
11:00 AM 80.6 °F 81.5 °F 60.8 °F 51% 29.92 in 6.2 mi East 6.9 mph - N/A   Partly Cloudy
11:21 AM 80.6 °F 81.5 °F 60.8 °F 51% 29.92 in 6.2 mi Variable 6.9 mph - N/A   Partly Cloudy
11:30 AM 80.6 °F 81.5 °F 60.8 °F 51% 29.92 in 6.2 mi Variable 6.9 mph - N/A   Partly Cloudy
12:00 PM 82.4 °F 83.4 °F 62.6 °F 51% 29.92 in 6.2 mi ENE 11.5 mph - N/A   Partly Cloudy
12:20 PM 82.4 °F 83.4 °F 62.6 °F 51% 29.92 in 6.2 mi ENE 9.2 mph - N/A   Partly Cloudy
12:30 PM 82.4 °F 83.4 °F 62.6 °F 51% 29.92 in 6.2 mi ENE 9.2 mph - N/A   Partly Cloudy
1:00 PM 82.4 °F 83.4 °F 62.6 °F 51% 29.92 in 6.2 mi ENE 13.8 mph - N/A   Partly Cloudy
1:20 PM 82.4 °F 83.4 °F 62.6 °F 51% 29.89 in 6.2 mi East 19.6 mph - N/A   Partly Cloudy
1:30 PM 82.4 °F 83.4 °F 62.6 °F 51% 29.89 in 6.2 mi East 19.6 mph - N/A   Partly Cloudy
2:00 PM 82.4 °F 82.9 °F 60.8 °F 48% 29.89 in 6.2 mi East 18.4 mph - N/A   Partly Cloudy
2:20 PM 84.2 °F 84.4 °F 60.8 °F 45% 29.89 in 6.2 mi East 19.6 mph - N/A   Partly Cloudy
2:30 PM 84.2 °F 84.4 °F 60.8 °F 45% 29.89 in 6.2 mi East 19.6 mph - N/A   Partly Cloudy
3:00 PM 82.4 °F 83.4 °F 62.6 °F 51% 29.89 in 6.2 mi ENE 24.2 mph - N/A   Partly Cloudy
3:20 PM 80.6 °F 81.8 °F 62.6 °F 54% 29.86 in 6.2 mi East 24.2 mph - N/A   Partly Cloudy
3:30 PM 80.6 °F 81.8 °F 62.6 °F 54% 29.86 in 6.2 mi East 24.2 mph - N/A   Partly Cloudy
4:00 PM 80.6 °F 82.3 °F 64.4 °F 58% 29.86 in 6.2 mi ENE 19.6 mph - N/A   Partly Cloudy
4:21 PM 78.8 °F - 62.6 °F 57% 29.86 in 6.2 mi ENE 24.2 mph - N/A   Partly Cloudy
4:30 PM 78.8 °F - 62.6 °F 57% 29.86 in 6.2 mi ENE 24.2 mph - N/A   Partly Cloudy
5:00 PM 77.0 °F - 60.8 °F 57% 29.86 in 6.2 mi East 24.2 mph - N/A   Partly Cloudy
5:20 PM 77.0 °F - 60.8 °F 57% 29.86 in 6.2 mi ENE 24.2 mph - N/A   Partly Cloudy
5:30 PM 77.0 °F - 60.8 °F 57% 29.86 in 6.2 mi ENE 24.2 mph - N/A   Partly Cloudy
6:00 PM 75.2 °F - 59.0 °F 57% 29.86 in 6.2 mi ENE 24.2 mph - N/A   Partly Cloudy
6:20 PM 73.4 °F - 57.2 °F 57% 29.86 in 6.2 mi ENE 24.2 mph - N/A   Partly Cloudy
7:00 PM 71.6 °F - 57.2 °F 60% 29.86 in 6.2 mi East 24.2 mph - N/A   Partly Cloudy
7:20 PM 71.6 °F - 55.4 °F 57% 29.86 in 6.2 mi East 21.9 mph - N/A   Partly Cloudy
7:30 PM 71.6 °F - 55.4 °F 57% 29.86 in 6.2 mi East 21.9 mph - N/A   Partly Cloudy
8:20 PM 68.0 °F - 55.4 °F 64% 29.86 in - ENE 18.4 mph - N/A   Clear
9:00 PM 68.0 °F - 51.8 °F 56% 29.89 in 6.2 mi ENE 24.2 mph - N/A   Partly Cloudy
9:22 PM 68.0 °F - 51.8 °F 56% 29.89 in 6.2 mi ENE 21.9 mph - N/A   Partly Cloudy
9:30 PM 68.0 °F - 51.8 °F 56% 29.89 in 6.2 mi ENE 21.9 mph - N/A   Partly Cloudy
10:21 PM 68.0 °F - 51.8 °F 56% 29.92 in - ENE 16.1 mph - N/A   Clear
11:20 PM 66.2 °F - 53.6 °F 64% 29.92 in - ENE 16.1 mph - N/A   Clear